owner,sensor,date,latitude,longitude,vertical_datum,direction_of_sea_water_velocity,sea_water_speed,upward_sea_water_velocity,qcFlag 
TABS,ioos:station:wmo:42047:1,2002-10-01T00:00:00Z,27.8966,-93.5973,2.0,12.52631986,23.28423072,-99999.0,'11111222,11111222,99999999' 
TABS,ioos:station:wmo:42047:1,2002-10-01T00:30:00Z,27.8966,-93.5973,2.0,15.32000405,22.52023312,-99999.0,'11111222,11111222,99999999' 
TABS,ioos:station:wmo:42047:1,2002-10-01T01:00:00Z,27.8966,-93.5973,2.0,19.0645212,20.72681838,-99999.0,'11111222,11111222,99999999' 
TABS,ioos:station:wmo:42047:1,2002-10-01T01:30:00Z,27.8966,-93.5973,2.0,23.80537971,21.45536064,-99999.0,'11111222,11111222,99999999' 
TABS,ioos:station:wmo:42047:1,2002-10-01T02:00:00Z,27.8966,-93.5973,2.0,26.92861846,20.4470169,-99999.0,'11111222,11111222,99999999' 
TABS,ioos:station:wmo:42047:1,2002-10-01T02:30:00Z,27.8966,-93.5973,2.0,27.95213987,20.1394563,-99999.0,'11111222,11111222,99999999' 
TABS,ioos:station:wmo:42047:1,2002-10-01T03:00:00Z,27.8966,-93.5973,2.0,24.72130852,17.79042439,-99999.0,'11111222,11111222,99999999' 
TABS,ioos:station:wmo:42047:1,2002-10-01T03:30:00Z,27.8966,-93.5973,2.0,35.1163522,17.3841422,-99999.0,'11111222,11111222,99999999' 
TABS,ioos:station:wmo:42047:1,2002-10-01T04:00:00Z,27.8966,-93.5973,2.0,28.90980206,15.74168034,-99999.0,'11111222,11111222,99999999' 
TABS,ioos:station:wmo:42047:1,2002-10-01T04:30:00Z,27.8966,-93.5973,2.0,34.00762335,15.0187383,-99999.0,'11111222,11111222,99999999' 
TABS,ioos:station:wmo:42047:1,2002-10-01T05:00:00Z,27.8966,-93.5973,2.0,32.35300867,14.85614351,-99999.0,'11111222,11111222,99999999' 
TABS,ioos:station:wmo:42047:1,2002-10-01T05:30:00Z,27.8966,-93.5973,2.0,27.96487422,15.01296773,-99999.0,'11111222,11111222,99999999' 
TABS,ioos:station:wmo:42047:1,2002-10-01T06:00:00Z,27.8966,-93.5973,2.0,28.59960387,12.47170397,-99999.0,'11111222,11111222,99999999' 
TABS,ioos:station:wmo:42047:1,2002-10-01T06:30:00Z,27.8966,-93.5973,2.0,36.0408966,12.57731688,-99999.0,'11111222,11111222,99999999' 
TABS,ioos:station:wmo:42047:1,2002-10-01T07:00:00Z,27.8966,-93.5973,2.0,34.04278334,11.71826352,-99999.0,'11111222,11111222,99999999' 
TABS,ioos:station:wmo:42047:1,2002-10-01T07:30:00Z,27.8966,-93.5973,2.0,32.52611585,12.83286406,-99999.0,'11111222,11111222,99999999' 
TABS,ioos:station:wmo:42047:1,2002-10-01T08:00:00Z,27.8966,-93.5973,2.0,26.6766695,11.49341116,-99999.0,'11111222,11111222,99999999' 
TABS,ioos:station:wmo:42047:1,2002-10-01T08:30:00Z,27.8966,-93.5973,2.0,35.61249217,12.48500701,-99999.0,'11111222,11111222,99999999' 
TABS,ioos:station:wmo:42047:1,2002-10-01T09:00:00Z,27.8966,-93.5973,2.0,41.84880735,12.60556226,-99999.0,'11111222,11111222,99999999' 
TABS,ioos:station:wmo:42047:1,2002-10-01T09:30:00Z,27.8966,-93.5973,2.0,35.41057594,10.9935663,-99999.0,'11111222,11111222,99999999' 
TABS,ioos:station:wmo:42047:1,2002-10-01T10:00:00Z,27.8966,-93.5973,2.0,46.01109992,12.02268689,-99999.0,'11111222,11111222,99999999' 
TABS,ioos:station:wmo:42047:1,2002-10-01T10:30:00Z,27.8966,-93.5973,2.0,48.11537635,12.88130816,-99999.0,'11111222,11111222,99999999' 
TABS,ioos:station:wmo:42047:1,2002-10-01T11:00:00Z,27.8966,-93.5973,2.0,52.01464801,12.73841434,-99999.0,'11111222,11111222,99999999' 
TABS,ioos:station:wmo:42047:1,2002-10-01T11:30:00Z,27.8966,-93.5973,2.0,52.52226712,9.236519907,-99999.0,'11133222,11111222,99999999' 
TABS,ioos:station:wmo:42047:1,2002-10-01T12:00:00Z,27.8966,-93.5973,2.0,57.91496107,9.902509783,-99999.0,'11133222,11111222,99999999' 
TABS,ioos:station:wmo:42047:1,2002-10-01T12:30:00Z,27.8966,-93.5973,2.0,54.4870486,8.108273552,-99999.0,'11133222,11111222,99999999' 
TABS,ioos:station:wmo:42047:1,2002-10-01T13:00:00Z,27.8966,-93.5973,2.0,64.56037919,7.286514942,-99999.0,'11133222,11111222,99999999' 
TABS,ioos:station:wmo:42047:1,2002-10-01T13:30:00Z,27.8966,-93.5973,2.0,81.79611381,6.587412239,-99999.0,'11133222,11111222,99999999' 
TABS,ioos:station:wmo:42047:1,2002-10-01T14:00:00Z,27.8966,-93.5973,2.0,100.6636363,3.99906239,-99999.0,'11133222,11111222,99999999' 
TABS,ioos:station:wmo:42047:1,2002-10-01T14:30:00Z,27.8966,-93.5973,2.0,88.52580511,2.720900586,-99999.0,'11133222,11111222,99999999' 
TABS,ioos:station:wmo:42047:1,2002-10-01T15:00:00Z,27.8966,-93.5973,2.0,150.1757308,4.483859944,-99999.0,'11133222,11111222,99999999' 
TABS,ioos:station:wmo:42047:1,2002-10-01T15:30:00Z,27.8966,-93.5973,2.0,191.998528,3.751972814,-99999.0,'11133222,11111222,99999999' 
TABS,ioos:station:wmo:42047:1,2002-10-01T16:00:00Z,27.8966,-93.5973,2.0,184.4245636,3.37004451,-99999.0,'11133222,11111222,99999999' 
TABS,ioos:station:wmo:42047:1,2002-10-01T16:30:00Z,27.8966,-93.5973,2.0,231.2844496,6.459349812,-99999.0,'11133222,11111222,99999999' 
TABS,ioos:station:wmo:42047:1,2002-10-01T17:00:00Z,27.8966,-93.5973,2.0,217.0882856,5.240038168,-99999.0,'11133222,11111222,99999999' 
TABS,ioos:station:wmo:42047:1,2002-10-01T17:30:00Z,27.8966,-93.5973,2.0,245.2349082,7.686923962,-99999.0,'11133222,11111222,99999999' 
TABS,ioos:station:wmo:42047:1,2002-10-01T18:00:00Z,27.8966,-93.5973,2.0,252.354908,9.171477525,-99999.0,'11133222,11111222,99999999' 
TABS,ioos:station:wmo:42047:1,2002-10-01T18:30:00Z,27.8966,-93.5973,2.0,268.4032284,12.20473679,-99999.0,'11111222,11111222,99999999' 
TABS,ioos:station:wmo:42047:1,2002-10-01T19:00:00Z,27.8966,-93.5973,2.0,275.2462168,13.12497238,-99999.0,'11111222,11111222,99999999' 
TABS,ioos:station:wmo:42047:1,2002-10-01T19:30:00Z,27.8966,-93.5973,2.0,286.5645571,14.62700585,-99999.0,'11111222,11111222,99999999' 
TABS,ioos:station:wmo:42047:1,2002-10-01T20:00:00Z,27.8966,-93.5973,2.0,293.1587417,13.09519377,-99999.0,'11111222,11111222,99999999' 
TABS,ioos:station:wmo:42047:1,2002-10-01T20:30:00Z,27.8966,-93.5973,2.0,293.8617907,16.1176301,-99999.0,'11111222,11111222,99999999' 
TABS,ioos:station:wmo:42047:1,2002-10-01T21:00:00Z,27.8966,-93.5973,2.0,306.5361507,17.15029154,-99999.0,'11111222,11111222,99999999' 
TABS,ioos:station:wmo:42047:1,2002-10-01T21:30:00Z,27.8966,-93.5973,2.0,314.092454,16.95854947,-99999.0,'11111222,11111222,99999999' 
TABS,ioos:station:wmo:42047:1,2002-10-01T22:00:00Z,27.8966,-93.5973,2.0,313.2846895,20.78411413,-99999.0,'11111222,11111222,99999999' 
TABS,ioos:station:wmo:42047:1,2002-10-01T22:30:00Z,27.8966,-93.5973,2.0,319.8674613,19.50161532,-99999.0,'11111222,11111222,99999999' 
TABS,ioos:station:wmo:42047:1,2002-10-01T23:00:00Z,27.8966,-93.5973,2.0,320.4656048,19.22879351,-99999.0,'11111222,11111222,99999999' 
TABS,ioos:station:wmo:42047:1,2002-10-01T23:30:00Z,27.8966,-93.5973,2.0,327.0315177,20.48947535,-99999.0,'11111222,11111222,99999999' 
TABS,ioos:station:wmo:42047:1,2002-10-02T00:00:00Z,27.8966,-93.5973,2.0,328.2917053,20.05330895,-99999.0,'11111222,11111222,99999999' 
TABS,ioos:station:wmo:42047:1,2002-10-02T00:30:00Z,27.8966,-93.5973,2.0,333.5460446,20.80888752,-99999.0,'11111222,11111222,99999999' 
TABS,ioos:station:wmo:42047:1,2002-10-02T01:00:00Z,27.8966,-93.5973,2.0,330.9559276,21.71018194,-99999.0,'11111222,11111222,99999999' 
TABS,ioos:station:wmo:42047:1,2002-10-02T01:30:00Z,27.8966,-93.5973,2.0,332.2417348,21.47091055,-99999.0,'11111222,11111222,99999999' 
TABS,ioos:station:wmo:42047:1,2002-10-02T02:00:00Z,27.8966,-93.5973,2.0,330.7606845,21.65978763,-99999.0,'11111222,11111222,99999999' 
TABS,ioos:station:wmo:42047:1,2002-10-02T02:30:00Z,27.8966,-93.5973,2.0,332.2347898,19.2120405,-99999.0,'11111222,11111222,99999999' 
TABS,ioos:station:wmo:42047:1,2002-10-02T03:00:00Z,27.8966,-93.5973,2.0,329.5302227,19.30631244,-99999.0,'11111222,11111222,99999999' 
TABS,ioos:station:wmo:42047:1,2002-10-02T03:30:00Z,27.8966,-93.5973,2.0,332.3200858,19.0728,-99999.0,'11111222,11111222,99999999' 
TABS,ioos:station:wmo:42047:1,2002-10-02T04:00:00Z,27.8966,-93.5973,2.0,338.368885,18.7720244,-99999.0,'11111222,11111222,99999999' 
TABS,ioos:station:wmo:42047:1,2002-10-02T04:30:00Z,27.8966,-93.5973,2.0,338.9761649,15.33056098,-99999.0,'11111222,11111222,99999999' 
TABS,ioos:station:wmo:42047:1,2002-10-02T05:00:00Z,27.8966,-93.5973,2.0,342.6890285,16.76962134,-99999.0,'11111222,11111222,99999999' 
TABS,ioos:station:wmo:42047:1,2002-10-02T05:30:00Z,27.8966,-93.5973,2.0,335.0213122,15.51083815,-99999.0,'11111222,11111222,99999999' 
TABS,ioos:station:wmo:42047:1,2002-10-02T06:00:00Z,27.8966,-93.5973,2.0,340.7598176,14.1715666,-99999.0,'11111222,11111222,99999999' 
TABS,ioos:station:wmo:42047:1,2002-10-02T06:30:00Z,27.8966,-93.5973,2.0,337.8408055,14.26353743,-99999.0,'11111222,11111222,99999999' 
TABS,ioos:station:wmo:42047:1,2002-10-02T07:00:00Z,27.8966,-93.5973,2.0,336.0724759,13.4127253,-99999.0,'11111222,11111222,99999999' 
TABS,ioos:station:wmo:42047:1,2002-10-02T07:30:00Z,27.8966,-93.5973,2.0,338.7110267,12.25638201,-99999.0,'11111222,11111222,99999999' 
TABS,ioos:station:wmo:42047:1,2002-10-02T08:00:00Z,27.8966,-93.5973,2.0,341.4186325,13.58835163,-99999.0,'11111222,11111222,99999999' 
TABS,ioos:station:wmo:42047:1,2002-10-02T08:30:00Z,27.8966,-93.5973,2.0,341.1902631,12.56083596,-99999.0,'11111222,11111222,99999999' 
TABS,ioos:station:wmo:42047:1,2002-10-02T09:00:00Z,27.8966,-93.5973,2.0,342.9653269,12.42513581,-99999.0,'11111222,11111222,99999999' 
TABS,ioos:station:wmo:42047:1,2002-10-02T09:30:00Z,27.8966,-93.5973,2.0,352.0471471,12.35887131,-99999.0,'11111222,11111222,99999999' 
TABS,ioos:station:wmo:42047:1,2002-10-02T10:00:00Z,27.8966,-93.5973,2.0,349.6145518,8.87540985,-99999.0,'11133222,11111222,99999999' 
TABS,ioos:station:wmo:42047:1,2002-10-02T10:30:00Z,27.8966,-93.5973,2.0,342.8259573,12.36117308,-99999.0,'11111222,11111222,99999999' 
TABS,ioos:station:wmo:42047:1,2002-10-02T11:00:00Z,27.8966,-93.5973,2.0,344.7847921,10.1352849,-99999.0,'11111222,11111222,99999999' 
TABS,ioos:station:wmo:42047:1,2002-10-02T11:30:00Z,27.8966,-93.5973,2.0,337.4753083,8.823089028,-99999.0,'11133222,11111222,99999999' 
TABS,ioos:station:wmo:42047:1,2002-10-02T12:00:00Z,27.8966,-93.5973,2.0,347.2881543,8.816098911,-99999.0,'11133222,11111222,99999999' 
TABS,ioos:station:wmo:42047:1,2002-10-02T12:30:00Z,27.8966,-93.5973,2.0,340.6932345,9.557510136,-99999.0,'11133222,11111222,99999999' 
TABS,ioos:station:wmo:42047:1,2002-10-02T13:00:00Z,27.8966,-93.5973,2.0,342.0723326,8.576432825,-99999.0,'11133222,11111222,99999999' 
TABS,ioos:station:wmo:42047:1,2002-10-02T13:30:00Z,27.8966,-93.5973,2.0,331.5046385,7.566676946,-99999.0,'11133222,11111222,99999999' 
TABS,ioos:station:wmo:42047:1,2002-10-02T14:00:00Z,27.8966,-93.5973,2.0,327.3049658,8.626888199,-99999.0,'11133222,11111222,99999999' 
TABS,ioos:station:wmo:42047:1,2002-10-02T14:30:00Z,27.8966,-93.5973,2.0,310.7278397,7.877848691,-99999.0,'11133222,11111222,99999999' 
TABS,ioos:station:wmo:42047:1,2002-10-02T15:00:00Z,27.8966,-93.5973,2.0,309.0797088,7.677707991,-99999.0,'11133222,11111222,99999999' 
TABS,ioos:station:wmo:42047:1,2002-10-02T15:30:00Z,27.8966,-93.5973,2.0,298.725618,5.576244256,-99999.0,'11133222,11111222,99999999' 
TABS,ioos:station:wmo:42047:1,2002-10-02T16:00:00Z,27.8966,-93.5973,2.0,295.0793831,7.242824035,-99999.0,'11133222,11111222,99999999' 
TABS,ioos:station:wmo:42047:1,2002-10-02T16:30:00Z,27.8966,-93.5973,2.0,281.6622221,3.512506228,-99999.0,'11133222,11111222,99999999' 
TABS,ioos:station:wmo:42047:1,2002-10-02T17:00:00Z,27.8966,-93.5973,2.0,265.7085931,7.751728839,-99999.0,'11133222,11111222,99999999' 
TABS,ioos:station:wmo:42047:1,2002-10-02T17:30:00Z,27.8966,-93.5973,2.0,280.348258,5.956886771,-99999.0,'11133222,11111222,99999999' 
TABS,ioos:station:wmo:42047:1,2002-10-02T18:00:00Z,27.8966,-93.5973,2.0,258.8371519,6.095309672,-99999.0,'11133222,11111222,99999999' 
TABS,ioos:station:wmo:42047:1,2002-10-02T18:30:00Z,27.8966,-93.5973,2.0,250.709578,7.204470834,-99999.0,'11133222,11111222,99999999' 
TABS,ioos:station:wmo:42047:1,2002-10-02T19:00:00Z,27.8966,-93.5973,2.0,252.1233898,7.134437609,-99999.0,'11133222,11111222,99999999' 
TABS,ioos:station:wmo:42047:1,2002-10-02T19:30:00Z,27.8966,-93.5973,2.0,246.8616218,12.41896936,-99999.0,'11111222,11111222,99999999' 
TABS,ioos:station:wmo:42047:1,2002-10-02T20:00:00Z,27.8966,-93.5973,2.0,263.9692674,12.66005529,-99999.0,'11111222,11111222,99999999' 
TABS,ioos:station:wmo:42047:1,2002-10-02T20:30:00Z,27.8966,-93.5973,2.0,245.2688218,11.7364262,-99999.0,'11111222,11111222,99999999' 
TABS,ioos:station:wmo:42047:1,2002-10-02T21:00:00Z,27.8966,-93.5973,2.0,241.0082599,13.20463934,-99999.0,'11111222,11111222,99999999' 
TABS,ioos:station:wmo:42047:1,2002-10-02T21:30:00Z,27.8966,-93.5973,2.0,254.7511879,15.01874163,-99999.0,'11111222,11111222,99999999' 
TABS,ioos:station:wmo:42047:1,2002-10-02T22:00:00Z,27.8966,-93.5973,2.0,243.370501,19.99046022,-99999.0,'11111222,11111222,99999999' 
TABS,ioos:station:wmo:42047:1,2002-10-02T22:30:00Z,27.8966,-93.5973,2.0,258.1427145,21.3658653,-99999.0,'11111222,11111222,99999999' 
TABS,ioos:station:wmo:42047:1,2002-10-02T23:00:00Z,27.8966,-93.5973,2.0,260.1147404,23.18417564,-99999.0,'11111222,11111222,99999999' 
TABS,ioos:station:wmo:42047:1,2002-10-02T23:30:00Z,27.8966,-93.5973,2.0,257.0589007,19.91581532,-99999.0,'11111222,11111222,99999999' 
TABS,ioos:station:wmo:42047:1,2002-10-03T00:00:00Z,27.8966,-93.5973,2.0,264.3132715,25.837138,-99999.0,'11111222,11111222,99999999' 
TABS,ioos:station:wmo:42047:1,2002-10-03T00:30:00Z,27.8966,-93.5973,2.0,267.6215935,26.99324545,-99999.0,'11111222,11111222,99999999' 
TABS,ioos:station:wmo:42047:1,2002-10-03T01:00:00Z,27.8966,-93.5973,2.0,263.0870955,27.08689166,-99999.0,'11111222,11111222,99999999' 
TABS,ioos:station:wmo:42047:1,2002-10-03T01:30:00Z,27.8966,-93.5973,2.0,262.0636782,27.95774848,-99999.0,'11111222,11111222,99999999' 
TABS,ioos:station:wmo:42047:1,2002-10-03T02:00:00Z,27.8966,-93.5973,2.0,273.6084836,25.90133973,-99999.0,'11111222,11111222,99999999' 
TABS,ioos:station:wmo:42047:1,2002-10-03T02:30:00Z,27.8966,-93.5973,2.0,272.3429308,26.91248967,-99999.0,'11111222,11111222,99999999' 
TABS,ioos:station:wmo:42047:1,2002-10-03T03:00:00Z,27.8966,-93.5973,2.0,272.3136414,23.28897808,-99999.0,'11111222,11111222,99999999' 
TABS,ioos:station:wmo:42047:1,2002-10-03T03:30:00Z,27.8966,-93.5973,2.0,274.6599858,28.80520266,-99999.0,'11111222,11111222,99999999' 
TABS,ioos:station:wmo:42047:1,2002-10-03T04:00:00Z,27.8966,-93.5973,2.0,274.2499468,24.15641116,-99999.0,'11111222,11111222,99999999' 
TABS,ioos:station:wmo:42047:1,2002-10-03T04:30:00Z,27.8966,-93.5973,2.0,271.5622055,23.84885951,-99999.0,'11111222,11111222,99999999' 
TABS,ioos:station:wmo:42047:1,2002-10-03T05:00:00Z,27.8966,-93.5973,2.0,270.5840576,23.56122238,-99999.0,'11111222,11111222,99999999' 
TABS,ioos:station:wmo:42047:1,2002-10-03T05:30:00Z,27.8966,-93.5973,2.0,272.6622267,22.39416219,-99999.0,'11111222,11111222,99999999' 
TABS,ioos:station:wmo:42047:1,2002-10-03T06:00:00Z,27.8966,-93.5973,2.0,259.0904101,21.03004755,-99999.0,'11111222,11111222,99999999' 
TABS,ioos:station:wmo:42047:1,2002-10-03T06:30:00Z,27.8966,-93.5973,2.0,266.6544655,23.65029598,-99999.0,'11111222,11111222,99999999' 
TABS,ioos:station:wmo:42047:1,2002-10-03T07:00:00Z,27.8966,-93.5973,2.0,259.7075089,20.09330734,-99999.0,'11111222,11111222,99999999' 
TABS,ioos:station:wmo:42047:1,2002-10-03T07:30:00Z,27.8966,-93.5973,2.0,250.156194,20.32693779,-99999.0,'11111222,11111222,99999999' 
TABS,ioos:station:wmo:42047:1,2002-10-03T08:00:00Z,27.8966,-93.5973,2.0,246.6650885,20.47466972,-99999.0,'11111222,11111222,99999999' 
TABS,ioos:station:wmo:42047:1,2002-10-03T08:30:00Z,27.8966,-93.5973,2.0,237.7978876,23.81299225,-99999.0,'11111222,11111222,99999999' 
TABS,ioos:station:wmo:42047:1,2002-10-03T09:00:00Z,27.8966,-93.5973,2.0,237.3886038,23.56506949,-99999.0,'11111222,11111222,99999999' 
TABS,ioos:station:wmo:42047:1,2002-10-03T09:30:00Z,27.8966,-93.5973,2.0,227.706855,22.1571704,-99999.0,'11111222,11111222,99999999' 
TABS,ioos:station:wmo:42047:1,2002-10-03T10:00:00Z,27.8966,-93.5973,2.0,230.7060338,19.05905034,-99999.0,'11111222,11111222,99999999' 
TABS,ioos:station:wmo:42047:1,2002-10-03T10:30:00Z,27.8966,-93.5973,2.0,237.4400341,21.368437,-99999.0,'11111222,11111222,99999999' 
TABS,ioos:station:wmo:42047:1,2002-10-03T11:00:00Z,27.8966,-93.5973,2.0,220.246362,26.1113347,-99999.0,'11111222,11111222,99999999' 
TABS,ioos:station:wmo:42047:1,2002-10-03T11:30:00Z,27.8966,-93.5973,2.0,218.4234103,24.63505835,-99999.0,'11111222,11111222,99999999' 
TABS,ioos:station:wmo:42047:1,2002-10-03T12:00:00Z,27.8966,-93.5973,2.0,223.6292365,20.69586432,-99999.0,'11111222,11111222,99999999' 
TABS,ioos:station:wmo:42047:1,2002-10-03T12:30:00Z,27.8966,-93.5973,2.0,218.8993888,24.6194476,-99999.0,'11111222,11111222,99999999' 
TABS,ioos:station:wmo:42047:1,2002-10-03T13:00:00Z,27.8966,-93.5973,2.0,220.2838458,19.0077379,-99999.0,'11111222,11111222,99999999' 
TABS,ioos:station:wmo:42047:1,2002-10-03T13:30:00Z,27.8966,-93.5973,2.0,220.8835552,18.91439663,-99999.0,'11111222,11111222,99999999' 
TABS,ioos:station:wmo:42047:1,2002-10-03T14:00:00Z,27.8966,-93.5973,2.0,216.4839218,16.0443635,-99999.0,'11111222,11111222,99999999' 
TABS,ioos:station:wmo:42047:1,2002-10-03T14:30:00Z,27.8966,-93.5973,2.0,214.5888955,15.7304609,-99999.0,'11111222,11111222,99999999' 
TABS,ioos:station:wmo:42047:1,2002-10-03T15:00:00Z,27.8966,-93.5973,2.0,223.3132946,13.93603961,-99999.0,'11111222,11111222,99999999' 
TABS,ioos:station:wmo:42047:1,2002-10-03T15:30:00Z,27.8966,-93.5973,2.0,203.8219427,13.27061415,-99999.0,'11111222,11111222,99999999' 
TABS,ioos:station:wmo:42047:1,2002-10-03T16:00:00Z,27.8966,-93.5973,2.0,206.4798333,12.06583607,-99999.0,'11111222,11111222,99999999' 
TABS,ioos:station:wmo:42047:1,2002-10-03T16:30:00Z,27.8966,-93.5973,2.0,223.8843348,11.98773123,-99999.0,'11111222,11111222,99999999' 
TABS,ioos:station:wmo:42047:1,2002-10-03T17:00:00Z,27.8966,-93.5973,2.0,207.9791985,14.13178333,-99999.0,'11111222,11111222,99999999' 
TABS,ioos:station:wmo:42047:1,2002-10-03T17:30:00Z,27.8966,-93.5973,2.0,210.1028045,12.10230557,-99999.0,'11111222,11111222,99999999' 
TABS,ioos:station:wmo:42047:1,2002-10-03T18:00:00Z,27.8966,-93.5973,2.0,197.448102,13.40688256,-99999.0,'11111222,11111222,99999999' 
TABS,ioos:station:wmo:42047:1,2002-10-03T18:30:00Z,27.8966,-93.5973,2.0,195.3163868,15.52130471,-99999.0,'11111222,11111222,99999999' 
TABS,ioos:station:wmo:42047:1,2002-10-03T19:00:00Z,27.8966,-93.5973,2.0,196.387204,15.4892382,-99999.0,'11111222,11111222,99999999' 
TABS,ioos:station:wmo:42047:1,2002-10-03T19:30:00Z,27.8966,-93.5973,2.0,194.4834507,13.35441874,-99999.0,'11111222,11111222,99999999' 
TABS,ioos:station:wmo:42047:1,2002-10-03T20:00:00Z,27.8966,-93.5973,2.0,197.2071193,13.28461516,-99999.0,'11111222,11111222,99999999' 
TABS,ioos:station:wmo:42047:1,2002-10-03T20:30:00Z,27.8966,-93.5973,2.0,199.3990951,14.84267159,-99999.0,'11111222,11111222,99999999' 
TABS,ioos:station:wmo:42047:1,2002-10-03T21:00:00Z,27.8966,-93.5973,2.0,204.7689688,13.55723054,-99999.0,'11111222,11111222,99999999' 
TABS,ioos:station:wmo:42047:1,2002-10-03T21:30:00Z,27.8966,-93.5973,2.0,208.6679109,14.25782943,-99999.0,'11111222,11111222,99999999' 
TABS,ioos:station:wmo:42047:1,2002-10-03T22:00:00Z,27.8966,-93.5973,2.0,215.3722676,14.92509631,-99999.0,'11111222,11111222,99999999' 
TABS,ioos:station:wmo:42047:1,2002-10-03T22:30:00Z,27.8966,-93.5973,2.0,208.6982968,12.97371574,-99999.0,'11111222,11111222,99999999' 
TABS,ioos:station:wmo:42047:1,2002-10-03T23:00:00Z,27.8966,-93.5973,2.0,227.6608433,15.38201872,-99999.0,'11111222,11111222,99999999' 
TABS,ioos:station:wmo:42047:1,2002-10-03T23:30:00Z,27.8966,-93.5973,2.0,239.5091876,15.15584706,-99999.0,'11111222,11111222,99999999' 
TABS,ioos:station:wmo:42047:1,2002-10-04T00:00:00Z,27.8966,-93.5973,2.0,231.0543151,13.47483952,-99999.0,'11111222,11111222,99999999' 
TABS,ioos:station:wmo:42047:1,2002-10-04T00:30:00Z,27.8966,-93.5973,2.0,256.5539094,12.47184429,-99999.0,'11111222,11111222,99999999' 
TABS,ioos:station:wmo:42047:1,2002-10-04T01:00:00Z,27.8966,-93.5973,2.0,269.7110423,13.90017626,-99999.0,'11111222,11111222,99999999' 
TABS,ioos:station:wmo:42047:1,2002-10-04T01:30:00Z,27.8966,-93.5973,2.0,275.0147644,16.1317389,-99999.0,'11111222,11111222,99999999' 
TABS,ioos:station:wmo:42047:1,2002-10-04T02:00:00Z,27.8966,-93.5973,2.0,285.6676957,15.84884854,-99999.0,'11111222,11111222,99999999' 
TABS,ioos:station:wmo:42047:1,2002-10-04T02:30:00Z,27.8966,-93.5973,2.0,290.8299311,17.40772817,-99999.0,'11111222,11111222,99999999' 
TABS,ioos:station:wmo:42047:1,2002-10-04T03:00:00Z,27.8966,-93.5973,2.0,304.0290897,16.42218621,-99999.0,'11111222,11111222,99999999' 
TABS,ioos:station:wmo:42047:1,2002-10-04T03:30:00Z,27.8966,-93.5973,2.0,304.8898837,16.03157509,-99999.0,'11111222,11111222,99999999' 
TABS,ioos:station:wmo:42047:1,2002-10-04T04:00:00Z,27.8966,-93.5973,2.0,316.7978455,18.25941127,-99999.0,'11111222,11111222,99999999' 
TABS,ioos:station:wmo:42047:1,2002-10-04T04:30:00Z,27.8966,-93.5973,2.0,318.9402162,15.84836269,-99999.0,'11111222,11111222,99999999' 
TABS,ioos:station:wmo:42047:1,2002-10-04T05:00:00Z,27.8966,-93.5973,2.0,319.1073962,17.47505937,-99999.0,'11111222,11111222,99999999' 
TABS,ioos:station:wmo:42047:1,2002-10-04T05:30:00Z,27.8966,-93.5973,2.0,327.807573,17.83137964,-99999.0,'11111222,11111222,99999999' 
TABS,ioos:station:wmo:42047:1,2002-10-04T06:00:00Z,27.8966,-93.5973,2.0,337.3430844,16.53615735,-99999.0,'11111222,11111222,99999999' 
TABS,ioos:station:wmo:42047:1,2002-10-04T06:30:00Z,27.8966,-93.5973,2.0,344.1971269,17.14814567,-99999.0,'11111222,11111222,99999999' 
TABS,ioos:station:wmo:42047:1,2002-10-04T07:00:00Z,27.8966,-93.5973,2.0,352.0179311,16.99466093,-99999.0,'11111222,11111222,99999999' 
TABS,ioos:station:wmo:42047:1,2002-10-04T07:30:00Z,27.8966,-93.5973,2.0,354.7594058,15.65544634,-99999.0,'11111222,11111222,99999999' 
TABS,ioos:station:wmo:42047:1,2002-10-04T08:00:00Z,27.8966,-93.5973,2.0,7.211074841,14.8978287,-99999.0,'11111222,11111222,99999999' 
TABS,ioos:station:wmo:42047:1,2002-10-04T08:30:00Z,27.8966,-93.5973,2.0,16.66413073,15.55318617,-99999.0,'11111222,11111222,99999999' 
TABS,ioos:station:wmo:42047:1,2002-10-04T09:00:00Z,27.8966,-93.5973,2.0,21.4807167,13.92736874,-99999.0,'11111222,11111222,99999999' 
TABS,ioos:station:wmo:42047:1,2002-10-04T09:30:00Z,27.8966,-93.5973,2.0,29.60459198,14.16977064,-99999.0,'11111222,11111222,99999999' 
TABS,ioos:station:wmo:42047:1,2002-10-04T10:00:00Z,27.8966,-93.5973,2.0,32.42163416,15.0332864,-99999.0,'11111222,11111222,99999999' 
TABS,ioos:station:wmo:42047:1,2002-10-04T10:30:00Z,27.8966,-93.5973,2.0,46.05510922,16.51374276,-99999.0,'11111222,11111222,99999999' 
TABS,ioos:station:wmo:42047:1,2002-10-04T11:00:00Z,27.8966,-93.5973,2.0,42.9140079,14.56898418,-99999.0,'11111222,11111222,99999999' 
TABS,ioos:station:wmo:42047:1,2002-10-04T11:30:00Z,27.8966,-93.5973,2.0,43.78369696,13.9897248,-99999.0,'11111222,11111222,99999999' 
TABS,ioos:station:wmo:42047:1,2002-10-04T12:00:00Z,27.8966,-93.5973,2.0,51.94215143,16.20548364,-99999.0,'11111222,11111222,99999999' 
TABS,ioos:station:wmo:42047:1,2002-10-04T12:30:00Z,27.8966,-93.5973,2.0,41.49549255,15.15335276,-99999.0,'11111222,11111222,99999999' 
TABS,ioos:station:wmo:42047:1,2002-10-04T13:00:00Z,27.8966,-93.5973,2.0,64.75952976,12.38218074,-99999.0,'11111222,11111222,99999999' 
TABS,ioos:station:wmo:42047:1,2002-10-04T13:30:00Z,27.8966,-93.5973,2.0,53.82714297,14.46907046,-99999.0,'11111222,11111222,99999999' 
TABS,ioos:station:wmo:42047:1,2002-10-04T14:00:00Z,27.8966,-93.5973,2.0,60.63419555,15.3756821,-99999.0,'11111222,11111222,99999999' 
TABS,ioos:station:wmo:42047:1,2002-10-04T14:30:00Z,27.8966,-93.5973,2.0,63.36744536,15.16949571,-99999.0,'11111222,11111222,99999999' 
TABS,ioos:station:wmo:42047:1,2002-10-04T15:00:00Z,27.8966,-93.5973,2.0,71.46790075,14.9133229,-99999.0,'11111222,11111222,99999999' 
TABS,ioos:station:wmo:42047:1,2002-10-04T15:30:00Z,27.8966,-93.5973,2.0,73.02380315,15.65202223,-99999.0,'11111222,11111222,99999999' 
TABS,ioos:station:wmo:42047:1,2002-10-04T16:00:00Z,27.8966,-93.5973,2.0,83.03744994,14.43646079,-99999.0,'11111222,11111222,99999999' 